Regional Weather Roundup
Issued by NWS

Home | Current Version | Previous Version | Graphics & Text | Print | Product List | Glossary On
Versions: 1 2 3 4 5 6 7 8 9 10 11 12 13 14 15 16 17 18 19 20 21 22 23 24 25 26 27 28 29 30 31 32 33 34 35 36 37 38 39 40 41 42 43 44 45 46 47 48 49 50
000
ASUS45 KPSR 032310
RWRAZ

ARIZONA HOURLY REGIONAL WEATHER ROUNDUP
NATIONAL WEATHER SERVICE PHOENIX AZ
400 PM MST MON AUG 03 2015

NOTE: FAIR INDICATES FEW OR NO CLOUDS BELOW 12,000 FEET WITH NO
SIGNIFICANT WEATHER AND/OR OBSTRUCTIONS TO VISIBILITY.

AZZ001>003-036-040000-
NORTHWEST ARIZONA

CITY           SKY/WX    TMP DP  RH WIND       PRES   REMARKS
BULLHEAD CITY  SUNNY    109  41  10 SW9       29.71F HX 103
KINGMAN        SUNNY     99  37  11 SW22      29.96F
$$

AZZ004>008-015-016-018-040000-
NORTH CENTRAL ARIZONA

CITY           SKY/WX    TMP DP  RH WIND       PRES   REMARKS
GRAND CANYON   MOSUNNY   85  37  18 W10G20    30.20F
WILLIAMS       MOSUNNY   84  37  18 SW8G16    30.29F
PRESCOTT       MOSUNNY   91  43  18 SW15G22   30.10F
FLAGSTAFF      MOSUNNY   80  40  23 SW9       30.26F
PAYSON         MOSUNNY   91  45  19 SW9G20    30.11F
PAGE           SUNNY     95  43  16 VRB7      29.97F
$$

AZZ009>014-017-040000-
NORTHEAST ARIZONA

CITY           SKY/WX    TMP DP  RH WIND       PRES   REMARKS
WINSLOW        PTSUNNY   95  43  16 W10G18    30.06F
SAINT JOHNS    SUNNY     87  36  16 VRB3      30.13F
SHOW LOW       MOSUNNY   82  41  23 S6        30.21F
$$

AZZ023-040000-
GREATER PHOENIX AREA

CITY           SKY/WX    TMP DP  RH WIND       PRES   REMARKS
PHOENIX        MOSUNNY  109  44  11 W12G21    29.75F HX 104
BUCKEYE        SUNNY    108  46  12 S7        29.76F HX 103
GLENDALE       MOSUNNY  109  46  12 S6        29.77F HX 105
LUKE AFB       SUNNY    108  47  13 SW10      29.74F HX 104
DEER VALLEY    SUNNY    107  46  13 W14G22    29.78F HX 103
SCOTTSDALE     SUNNY    106  45  12 SW9G20    29.80F HX 101
MESA-FALCON    MOSUNNY  109  46  12 SW6       29.78F HX 105
MESA-GATEWAY   MOSUNNY  106  48  14 SW6       29.80F HX 102
CHANDLER       MOSUNNY  108  48  13 SW12      29.77F HX 104
$$

AZZ027-028-040000-
SOUTHWEST MARICOPA COUNTY AND PINAL COUNTY

CITY           SKY/WX    TMP DP  RH WIND       PRES   REMARKS
CASA GRANDE    SUNNY    106  48  14 SW9       29.79F HX 102
GILA BEND      MOSUNNY  110  44  11 SW10      29.73F HX 105
$$

AZZ503-504-507>509-040000-
SOUTHEAST ARIZONA

CITY           SKY/WX    TMP DP  RH WIND       PRES   REMARKS
TUCSON         MOSUNNY  103  46  14 N6        29.90F
DAVIS-MONTHAN  SUNNY    101  48  16 W2        29.88F
NOGALES        PTSUNNY   91  57  31 SE7       30.01S
SIERRA VISTA   SUNNY     89  50  26 VRB2      30.07F
DOUGLAS        MOSUNNY   92  49  22 NW6       30.01F
SAFFORD        PTSUNNY  103  42  12 W14       29.88F
$$

AZZ020-021-025-026-031-040000-
SOUTHWEST ARIZONA

CITY           SKY/WX    TMP DP  RH WIND       PRES   REMARKS
YUMA           MOSUNNY  110  49  13 S12       29.70F HX 106
$$

CAZ031-033-041-043-047-048-061-040000-
SOUTHERN CALIFORNIA

CITY           SKY/WX    TMP DP  RH WIND       PRES   REMARKS
DOWNTOWN L.A.  MOSUNNY   79  64  60 CALM      29.86F
L.A. AIRPORT   MOSUNNY   75  65  70 W16       29.88F
SAN DIEGO      MOSUNNY   76  63  64 NW9       29.89F
BURBANK        MOSUNNY   87  62  43 S12       29.86F
ONTARIO        PTSUNNY   91  59  33 W13       29.86F
RIVERSIDE      PTSUNNY   93  55  27 W8G18     29.85F
PALM SPRINGS   MOSUNNY  109  47  12 NW13G25   29.73F HX 105
EL CENTRO NAS  MOSUNNY  111  38   8 SE10      29.68F HX 104
IMPERIAL       SUNNY    111  48  12 E8        29.66F HX 107
BLYTHE         MOSUNNY  111  47  12 S13G21    29.69F HX 107
NEEDLES        MOSUNNY  112  34   7 SW14G23   29.72F HX 104
$$

NVZ020-UTZ003-040000-
SOUTHERN NEVADA-UTAH

CITY           SKY/WX    TMP DP  RH WIND       PRES   REMARKS
LAS VEGAS      MOSUNNY  105  34   8 W10       29.76F
SALT LAKE CITY LGT RAIN  66  58  75 E3        30.13F
$$

NMZ009-TXZ055-040000-
NEW MEXICO-WEST TEXAS

CITY           SKY/WX    TMP DP  RH WIND       PRES   REMARKS
ALBUQUERQUE    MOSUNNY   88  43  20 NW9G25    30.09F
EL PASO        MOSUNNY   92  54  27 NW7       29.96F
$$


........................KEY........................
SKY/WX - SKY CONDITION/WEATHER
TMP    - TEMPERATURE IN FAHRENHEIT
DP     - DEW POINT IN FAHRENHEIT
RH     - RELATIVE HUMIDITY IN PERCENT
WIND   - DIRECTION AND SPEED IN MILES PER HOUR (MPH)
VRB    - VARIABLE WIND DIRECTION
PRES   - MEAN SEA LEVEL PRESSURE IN INCHES OF MERCURY
         F - FALLING PRESSURE   R - RISING PRESSURE
         S - STEADY PRESSURE
VSB    - VISIBILITY IN MILES
HX     - HEAT INDEX IN FAHRENHEIT
WCI    - WIND CHILL INDEX IN FAHRENHEIT
TC     - TEMPERATURE IN CELSIUS WHICH IS ALSO KNOWN AS
         TEMPERATURE IN CENTIGRADE
AFB    - AIR FORCE BASE
         LUKE AFB IS LUKE AIR FORCE BASE
         DAVIS-MONTHAN IS DAVIS-MONTHAN AIR FORCE BASE
NAS    - NAVAL AIR STATION
         EL CENTRO NAS IS EL CENTRO NAVAL AIR STATION
N/A    - NOT AVAILABLE




USA.gov is the U.S. government's official web portal to all federal, state and local government web resources and services.